FW5890 Weather Reports


Display with metric or nautical units.
time (UTC)temp
F
wind
direction
speed
MPH
gust
MPH
rain 1hr
in
rain 24hr
in
rain mn
in
humidity
%
barometer
mb
20260503035510 58 252 0.0 3.0 0.00 0.00 0.00 49 1009.1
20260503035046 58 254 0.0 3.0 0.00 0.00 0.00 48 1009.1
20260503034525 59 254 1.0 3.0 0.00 0.00 0.00 48 1009.3
20260503034011 59 253 0.0 3.0 0.00 0.00 0.00 47 1009.3
20260503033534 59 256 0.0 3.0 0.00 0.00 0.00 47 1009.4
20260503033004 60 255 0.0 3.0 0.00 0.00 0.00 46 1009.4
20260503032557 60 255 0.0 3.0 0.00 0.00 0.00 45 1009.6
20260503032025 60 254 0.0 4.0 0.00 0.00 0.00 46 1009.7
20260503031544 61 254 1.0 4.0 0.00 0.00 0.00 44 1009.8
20260503031017 61 275 0.0 3.0 0.00 0.00 0.00 44 1009.9
20260503030600 61 275 0.0 3.0 0.00 0.00 0.00 44 1010.0
20260503030052 61 275 1.0 3.0 0.00 0.00 0.00 43 1010.1
20260503025508 61 264 0.0 5.0 0.00 0.00 0.00 44 1010.1
20260503025029 61 241 1.0 7.0 0.00 0.00 0.00 43 1010.3
20260503024555 61 322 3.0 10.0 0.00 0.00 0.00 43 1010.5
20260503024023 61 327 5.0 10.0 0.00 0.00 0.00 44 1010.7
20260503023608 61 340 2.0 5.0 0.00 0.00 0.00 44 1010.6
20260503023021 61 339 3.0 5.0 0.00 0.00 0.00 43 1010.7
20260503022503 61 332 2.0 4.0 0.00 0.00 0.00 43 1010.8
20260503022037 62 331 0.0 2.0 0.00 0.00 0.00 43 1010.8
20260503021557 62 331 0.0 3.0 0.00 0.00 0.00 43 1010.9
20260503021003 62 332 0.0 9.0 0.00 0.00 0.00 42 1010.9
20260503020523 62 313 0.0 9.0 0.00 0.00 0.00 42 1010.9
20260503020045 62 329 2.0 6.0 0.00 0.00 0.00 41 1010.9
20260503015515 63 325 1.0 12.0 0.00 0.00 0.00 41 1010.8
20260503015056 62 17 5.0 12.0 0.00 0.00 0.00 41 1010.8
20260503014527 63 345 5.0 12.0 0.00 0.00 0.00 42 1011.0
20260503014018 63 313 7.0 12.0 0.00 0.00 0.00 41 1011.1
20260503013601 63 316 2.0 12.0 0.00 0.00 0.00 41 1011.1
20260503013031 63 344 5.0 12.0 0.00 0.00 0.00 41 1011.2
20260503012507 63 325 5.0 12.0 0.00 0.00 0.00 39 1011.0
20260503012024 63 320 2.0 8.0 0.00 0.00 0.00 39 1011.0
20260503011551 63 334 1.0 8.0 0.00 0.00 0.00 39 1011.0
20260503011104 63 339 4.0 8.0 0.00 0.00 0.00 39 1011.0
20260503010515 63 275 0.0 7.0 0.00 0.00 0.00 40 1010.9
20260503010059 63 319 1.0 8.0 0.00 0.00 0.00 40 1010.9
20260503005524 63 312 2.0 9.0 0.00 0.00 0.00 42 1011.1
20260503005057 63 279 2.0 9.0 0.00 0.00 0.00 41 1011.1
20260503004524 62 330 1.0 5.0 0.00 0.00 0.00 41 1011.1
20260503004046 62 302 1.0 5.0 0.00 0.00 0.00 42 1011.2
20260503003604 62 311 1.0 4.0 0.00 0.00 0.00 43 1011.2
20260503003016 62 184 1.0 4.0 0.00 0.00 0.00 44 1011.1
20260503002559 62 56 0.0 4.0 0.00 0.00 0.00 46 1011.4
20260503002009 63 313 1.0 12.0 0.00 0.00 0.00 44 1011.4
20260503001529 63 250 1.0 12.0 0.00 0.00 0.00 42 1011.4
20260503001049 63 335 5.0 11.0 0.00 0.00 0.00 41 1011.8
20260503000612 63 327 3.0 5.0 0.00 0.00 0.00 41 1011.3
20260503000048 63 304 1.0 10.0 0.00 0.00 0.00 41 1011.3
20260502235602 63 324 1.0 10.0 0.00 0.00 0.00 40 1011.2
20260502235013 64 284 1.0 13.0 0.00 0.00 0.00 42 1011.3
20260502234533 64 157 1.0 14.0 0.00 0.00 0.00 41 1011.3
20260502234053 65 5 6.0 14.0 0.00 0.00 0.00 37 1011.7
20260502233518 65 312 1.0 3.0 0.00 0.00 0.00 37 1011.3
20260502233002 65 338 0.0 8.0 0.00 0.00 0.00 37 1011.2
20260502232526 65 322 3.0 14.0 0.00 0.00 0.00 37 1011.3
20260502232105 65 326 4.0 13.0 0.00 0.00 0.00 36 1011.6
20260502231649 65 93 2.0 9.0 0.00 0.00 0.00 37 1011.5
20260502231013 65 333 3.0 8.0 0.00 0.00 0.00 36 1011.4
20260502230533 65 317 3.0 11.0 0.00 0.00 0.00 36 1011.4
20260502230052 65 316 4.0 11.0 0.00 0.00 0.00 35 1011.5
20260502225527 65 329 3.0 11.0 0.00 0.00 0.00 36 1011.5
20260502225107 65 334 3.0 11.0 0.00 0.00 0.00 36 1011.6
20260502224517 66 342 4.0 13.0 0.00 0.00 0.00 34 1011.7
20260502224034 66 300 6.0 13.0 0.00 0.00 0.00 35 1011.7
20260502223509 66 346 4.0 11.0 0.00 0.00 0.00 35 1011.8
20260502223053 66 302 4.0 10.0 0.00 0.00 0.00 35 1011.8
20260502222503 66 311 4.0 10.0 0.00 0.00 0.00 35 1012.0
20260502222022 66 277 4.0 10.0 0.00 0.00 0.00 34 1012.0
20260502221625 66 285 3.0 10.0 0.00 0.00 0.00 35 1012.0
20260502221040 66 331 3.0 10.0 0.00 0.00 0.00 35 1012.0
20260502220515 66 267 5.0 18.0 0.00 0.00 0.00 34 1012.0
20260502220042 66 344 7.0 18.0 0.00 0.00 0.00 33 1012.1
20260502215522 67 325 5.0 10.0 0.00 0.00 0.00 34 1012.2
20260502215055 67 290 2.0 9.0 0.00 0.00 0.00 35 1012.3
20260502214525 67 325 2.0 8.0 0.00 0.00 0.00 36 1012.4
20260502214022 66 327 3.0 11.0 0.00 0.00 0.00 34 1012.4
20260502213543 66 338 4.0 15.0 0.00 0.00 0.00 36 1012.6
20260502213101 66 323 5.0 15.0 0.00 0.00 0.00 36 1012.6
20260502212511 66 285 3.0 12.0 0.00 0.00 0.00 34 1012.7
20260502212044 66 351 4.0 12.0 0.00 0.00 0.00 35 1012.8
20260502211504 67 292 4.0 10.0 0.00 0.00 0.00 35 1012.9
20260502211052 67 329 3.0 10.0 0.00 0.00 0.00 37 1012.9
20260502210520 66 334 5.0 12.0 0.00 0.00 0.00 35 1013.1
20260502210041 65 298 4.0 12.0 0.00 0.00 0.00 35 1013.1
20260502205514 65 330 4.0 12.0 0.00 0.00 0.00 35 1013.3
20260502205057 65 336 6.0 15.0 0.00 0.00 0.00 34 1013.4
20260502204531 65 360 6.0 15.0 0.00 0.00 0.00 34 1013.5
20260502204053 66 301 7.0 12.0 0.00 0.00 0.00 34 1013.5
20260502203517 65 270 4.0 13.0 0.00 0.00 0.00 36 1013.6
20260502203003 66 340 6.0 13.0 0.00 0.00 0.00 35 1013.7
20260502202523 65 360 3.0 11.0 0.00 0.00 0.00 36 1013.9
20260502202046 65 275 4.0 11.0 0.00 0.00 0.00 36 1014.0
20260502201603 65 277 2.0 11.0 0.00 0.00 0.00 37 1014.1
20260502201013 64 346 5.0 12.0 0.00 0.00 0.00 35 1014.3
20260502200535 64 221 6.0 12.0 0.00 0.00 0.00 35 1014.3
20260502200008 63 292 4.0 14.0 0.00 0.00 0.00 36 1014.5
20260502195549 63 288 7.0 14.0 0.00 0.00 0.00 36 1014.5
20260502195022 63 301 5.0 14.0 0.00 0.00 0.00 37 1014.6
20260502194603 63 340 4.0 18.0 0.00 0.00 0.00 38 1014.7
20260502194017 63 344 7.0 18.0 0.00 0.00 0.00 37 1014.9
20260502193543 63 325 2.0 14.0 0.00 0.00 0.00 38 1014.9
20260502193109 63 346 6.0 14.0 0.00 0.00 0.00 35 1015.0
20260502192536 63 322 4.0 11.0 0.00 0.00 0.00 38 1015.1
20260502192001 62 298 5.0 12.0 0.00 0.00 0.00 37 1015.3
20260502191558 62 315 4.0 12.0 0.00 0.00 0.00 37 1015.3
20260502191008 62 328 3.0 11.0 0.00 0.00 0.00 37 1015.5
20260502190534 62 302 4.0 11.0 0.00 0.00 0.00 37 1015.6
20260502185549 61 329 6.0 11.0 0.00 0.00 0.00 36 1015.8
20260502185016 61 22 4.0 12.0 0.00 0.00 0.00 39 1015.8
20260502184559 60 319 4.0 15.0 0.00 0.00 0.00 37 1016.0
20260502184040 61 323 9.0 15.0 0.00 0.00 0.00 38 1016.2
20260502183536 61 328 3.0 11.0 0.00 0.00 0.00 37 1016.1
20260502183105 61 325 4.0 10.0 0.00 0.00 0.00 38 1016.4
20260502182542 60 321 2.0 9.0 0.00 0.00 0.00 40 1016.3
20260502182024 60 324 5.0 13.0 0.00 0.00 0.00 38 1016.5
20260502181552 59 261 6.0 13.0 0.00 0.00 0.00 39 1016.5
20260502181029 59 284 3.0 11.0 0.00 0.00 0.00 40 1016.6
20260502180507 59 327 4.0 13.0 0.00 0.00 0.00 38 1016.7
20260502170514 57 327 2.0 10.0 0.00 0.00 0.00 40 1017.7
20260502170108 57 306 3.0 12.0 0.00 0.00 0.00 39 1017.8
20260502164011 57 321 3.0 10.0 0.00 0.00 0.00 41 1018.0
20260502163558 56 350 5.0 10.0 0.00 0.00 0.00 40 1018.2
20260502163048 56 289 3.0 10.0 0.00 0.00 0.00 44 1018.2
20260502162532 56 305 3.0 11.0 0.00 0.00 0.00 44 1018.3
20260502162007 56 15 4.0 9.0 0.00 0.00 0.00 43 1018.4
20260502161543 55 331 2.0 9.0 0.00 0.00 0.00 44 1018.4
20260502161004 55 333 4.0 10.0 0.00 0.00 0.00 43 1018.5
20260502160542 55 294 6.0 13.0 0.00 0.00 0.00 43 1018.5
20260502152039 54 304 1.0 12.0 0.00 0.00 0.00 49 1018.9
20260502151533 53 315 5.0 12.0 0.00 0.00 0.00 48 1019.0
20260502151028 53 329 1.0 10.0 0.00 0.00 0.00 51 1019.0
20260502150524 53 347 3.0 10.0 0.00 0.00 0.00 50 1019.1
20260502130516 44 317 1.0 8.0 0.00 0.00 0.00 64 1019.5
20260502123516 42 360 1.0 5.0 0.00 0.00 0.00 67 1019.5
20260502123039 42 360 1.0 5.0 0.00 0.00 0.00 67 1019.5
20260502122559 42 360 1.0 5.0 0.00 0.00 0.00 68 1019.5
20260502122007 41 360 1.0 5.0 0.00 0.00 0.00 69 1019.5
20260502121526 40 360 2.0 5.0 0.00 0.00 0.00 70 1019.5
20260502121110 39 360 0.0 4.0 0.00 0.00 0.00 73 1019.5
20260502120543 38 317 0.0 3.0 0.00 0.00 0.00 76 1019.4
20260502120104 37 360 1.0 3.0 0.00 0.00 0.00 77 1019.5
20260502115513 37 360 0.0 1.0 0.00 0.00 0.00 79 1019.4
20260502115049 36 360 0.0 3.0 0.00 0.00 0.00 79 1019.4
20260502114509 35 360 0.0 3.0 0.00 0.00 0.00 80 1019.3
20260502114048 35 360 0.0 2.0 0.00 0.00 0.00 80 1019.3
20260502113608 35 360 0.0 0.0 0.00 0.00 0.00 81 1019.3
20260502113020 35 360 0.0 0.0 0.00 0.00 0.00 80 1019.3
20260502112602 35 360 0.0 0.0 0.00 0.00 0.00 78 1019.2
20260502112049 35 360 0.0 0.0 0.00 0.00 0.00 78 1019.2
20260502111507 36 360 0.0 0.0 0.00 0.00 0.00 76 1019.2
20260502111039 36 360 0.0 0.0 0.00 0.00 0.00 76 1019.1
20260502110522 36 360 0.0 0.0 0.00 0.00 0.00 75 1019.2
20260502110051 37 360 0.0 1.0 0.00 0.00 0.00 74 1019.2
20260502105511 37 360 0.0 1.0 0.00 0.00 0.00 74 1019.2
20260502105052 37 360 0.0 3.0 0.00 0.00 0.00 73 1019.2
20260502104501 37 360 0.0 3.0 0.00 0.00 0.00 72 1019.2
20260502104024 38 360 0.0 0.0 0.00 0.00 0.00 73 1019.2
20260502103542 38 360 0.0 0.0 0.00 0.00 0.00 72 1019.2
20260502103108 38 360 0.0 0.0 0.00 0.00 0.00 71 1019.2
20260502102512 39 360 0.0 1.0 0.00 0.00 0.00 69 1019.2
20260502102047 39 360 0.0 2.0 0.00 0.00 0.00 69 1019.2
20260502101524 39 360 0.0 2.0 0.00 0.00 0.00 68 1019.1
20260502101049 39 360 0.0 5.0 0.00 0.00 0.00 67 1019.2
20260502100543 39 360 1.0 5.0 0.00 0.00 0.00 67 1019.2
20260502100106 39 360 0.0 1.0 0.00 0.00 0.00 68 1019.2
20260502091532 42 360 0.0 3.0 0.00 0.00 0.00 63 1019.1
20260502091010 42 360 0.0 4.0 0.00 0.00 0.00 61 1019.0
20260502090527 42 360 0.0 5.0 0.00 0.00 0.00 60 1019.0
20260502071519 39 360 0.0 4.0 0.00 0.00 0.00 71 1019.3
20260502071004 37 360 1.0 4.0 0.00 0.00 0.00 76 1019.3
20260502070526 36 360 0.0 3.0 0.00 0.00 0.00 82 1019.3
20260502065544 36 360 0.0 0.0 0.00 0.00 0.00 84 1019.3
20260502065002 36 360 0.0 0.0 0.00 0.00 0.00 84 1019.4
20260502064618 36 360 0.0 0.0 0.00 0.00 0.00 84 1019.4
20260502064041 36 360 0.0 0.0 0.00 0.00 0.00 83 1019.4
20260502063504 36 360 0.0 0.0 0.00 0.00 0.00 83 1019.5
20260502063055 36 360 0.0 0.0 0.00 0.00 0.00 83 1019.5
20260502062537 36 360 0.0 0.0 0.00 0.00 0.00 83 1019.5
20260502062049 36 360 0.0 0.0 0.00 0.00 0.00 83 1019.5
20260502061540 36 360 0.0 0.0 0.00 0.00 0.00 83 1019.5
20260502061103 36 360 0.0 0.0 0.00 0.00 0.00 83 1019.5
20260502060523 37 360 0.0 0.0 0.00 0.00 0.00 83 1019.5
20260502060011 37 360 0.0 0.0 0.00 0.00 0.00 82 1019.5
20260502055601 37 360 0.0 0.0 0.00 0.00 0.00 82 1019.5
20260502055040 37 360 0.0 0.0 0.00 0.00 0.00 82 1019.5
20260502054529 37 360 0.0 0.0 0.00 0.00 0.00 82 1019.5
20260502054049 37 360 0.0 0.0 0.00 0.00 0.00 82 1019.5
20260502053539 37 360 0.0 0.0 0.00 0.00 0.00 82 1019.5
20260502053030 37 360 0.0 0.0 0.00 0.00 0.00 81 1019.5
20260502052524 38 360 0.0 0.0 0.00 0.00 0.00 81 1019.5
20260502052001 38 360 0.0 0.0 0.00 0.00 0.00 81 1019.5
20260502051556 38 360 0.0 0.0 0.00 0.00 0.00 80 1019.5
20260502051016 38 360 0.0 0.0 0.00 0.00 0.00 80 1019.6
20260502050533 38 360 0.0 0.0 0.00 0.00 0.00 80 1019.5
20260502050031 38 360 0.0 0.0 0.00 0.00 0.00 79 1019.4
20260502045559 38 360 0.0 0.0 0.00 0.00 0.00 80 1019.4
20260502045054 38 360 0.0 0.0 0.00 0.00 0.00 79 1019.3
20260502044526 38 360 0.0 0.0 0.00 0.00 0.00 78 1019.4
20260502044108 38 360 0.0 0.0 0.00 0.00 0.00 76 1019.4
20260502043518 39 360 0.0 0.0 0.00 0.00 0.00 76 1019.4
20260502043106 39 360 0.0 0.0 0.00 0.00 0.00 77 1019.4
20260502042537 39 360 0.0 0.0 0.00 0.00 0.00 75 1019.4
20260502042002 39 360 0.0 0.0 0.00 0.00 0.00 74 1019.3
20260502041601 40 360 0.0 0.0 0.00 0.00 0.00 75 1019.3
20260502041005 40 360 0.0 0.0 0.00 0.00 0.00 74 1019.4
20260502040525 40 360 0.0 0.0 0.00 0.00 0.00 72 1019.4
20260502040047 40 360 0.0 0.0 0.00 0.00 0.00 68 1019.3